Content
SEND FEEDBACK

Daily
Averages
Monthly
Summary
United States of America

TRENTON, TEXAS


Home > North America > United States > Texas
Elevation: 750 feet     Latitude: 33 26N     Longitude: 096 20W

WEATHER
 
SELECT A DAY
Number of Records: 277,891;   Date Range: 1/1/95 - 10/19/14
 
SHARE

PRINT THIS DATA

[ ← Previous Day ]
WEATHER ALMANAC - JANUARY 31, 2013
[ Next Day → ]
[ °C ]   °F
Weather ElementAverageHighLow
Temperature46 °F64.4 °F (2:35 pm)32 °F (1:35 am)
Dewpoint27 °F32 °F (7:55 pm)19.4 °F (11:55 pm)
Humidity52.7 %81 % (12:35 am)22 % (3:35 pm)
Barometer30.17 in30.37 in (10:55 pm)30.09 in (2:55 pm)
Wind Speed11 mph20.7 mph (8:35 pm)
Wind Gust32.2 mph (7:35 pm)
Weather ElementAverage
Visibility10 mi
Wind DirectionS (182 °)

Weather ElementTotal
Precipitation---
Heating Degree Days16.8 (Base 65)
Averaged from 71 records on January 31, 2013
WEATHER CONDITIONS BREAKOUT
WIND DIRECTION BREAKOUT
WEATHER BY HOUR - JANUARY 31, 2013
[ °C ]   °F
Local TimeTemperatureDewpointHumidityBarometerVisibilityWind DirectionWind SpeedGust SpeedPrecipitationEventsConditions
12:35 AM33.8 °F28.4 °F81 %30.11 in10.0 miSW (220°)5.8 mphClear
12:55 AM33.8 °F26.6 °F75 %30.12 in10.0 miSW (220°)6.9 mphClear
1:15 AM33.8 °F26.6 °F75 %30.12 in10.0 miSW (220°)5.8 mphClear
1:35 AM32.0 °F26.6 °F80 %30.12 in10.0 miSW (220°)4.6 mphClear
1:55 AM33.8 °F26.6 °F75 %30.11 in10.0 miSSW (210°)5.8 mphClear
2:15 AM33.8 °F26.6 °F75 %30.11 in10.0 miSW (220°)4.6 mphClear
2:35 AM33.8 °F26.6 °F75 %30.12 in10.0 miSSW (210°)4.6 mphClear
2:55 AM32.0 °F26.6 °F80 %30.12 in10.0 miSSW (210°)5.8 mphClear
3:15 AM33.8 °F28.4 °F81 %30.12 in10.0 miSSW (200°)10.4 mphClear
3:35 AM33.8 °F28.4 °F81 %30.11 in10.0 miSouth (190°)8.1 mphClear
3:55 AM33.8 °F24.8 °F70 %30.11 in10.0 miSouth (190°)6.9 mphClear
4:15 AM35.6 °F24.8 °F65 %30.11 in10.0 miSouth (180°)8.1 mphClear
4:35 AM37.4 °F24.8 °F60 %30.10 in10.0 miSouth (180°)10.4 mphClear
4:55 AM37.4 °F26.6 °F65 %30.10 in10.0 miSSW (200°)11.5 mphClear
5:15 AM37.4 °F26.6 °F65 %30.11 in10.0 miSSW (200°)12.7 mphClear
5:35 AM35.6 °F26.6 °F70 %30.12 in10.0 miSSW (200°)10.4 mphClear
5:55 AM35.6 °F26.6 °F70 %30.12 in10.0 miSSW (200°)10.4 mphClear
6:15 AM35.6 °F26.6 °F70 %30.12 in10.0 miSSW (200°)10.4 mphClear
6:35 AM33.8 °F26.6 °F75 %30.12 in10.0 miSSW (210°)5.8 mphClear
6:55 AM33.8 °F26.6 °F75 %30.13 in10.0 miSW (220°)4.6 mphClear
7:15 AM33.8 °F26.6 °F75 %30.14 in10.0 miSSW (210°)3.5 mphClear
7:35 AM32.0 °F26.6 °F80 %30.14 in10.0 miSSW (200°)5.8 mphClear
7:55 AM33.8 °F26.6 °F75 %30.14 in10.0 miSSW (200°)5.8 mphClear
8:15 AM35.6 °F26.6 °F70 %30.14 in10.0 miSSW (210°)5.8 mphClear
8:35 AM39.2 °F26.6 °F61 %30.15 in10.0 miSSW (200°)8.1 mphClear
8:55 AM41.0 °F26.6 °F57 %30.16 in10.0 miSSW (210°)10.4 mphClear
9:15 AM42.8 °F26.6 °F53 %30.15 in10.0 miSSW (200°)8.1 mphClear
9:35 AM46.4 °F26.6 °F46 %30.16 in10.0 miSSW (210°)6.9 mphClear
9:55 AM50.0 °F26.6 °F40 %30.16 in10.0 miSSW (200°)8.1 mphClear
10:15 AM51.8 °F26.6 °F38 %30.16 in10.0 miSSW (200°)10.4 mphClear
10:35 AM53.6 °F26.6 °F35 %30.17 in10.0 miSSW (210°)11.5 mphClear
10:55 AM55.4 °F26.6 °F33 %30.17 in10.0 miSSW (210°)10.4 mphClear
11:15 AM57.2 °F26.6 °F31 %30.18 in10.0 miSSW (200°)13.8 mphClear
11:35 AM59.0 °F26.6 °F29 %30.17 in10.0 miSSW (210°)12.7 mphClear
11:55 AM59.0 °F28.4 °F31 %30.17 in10.0 miSSW (200°)13.8 mphClear
12:15 PM60.8 °F28.4 °F29 %30.15 in10.0 miSSW (210°)15.0 mphClear
12:35 PM60.8 °F26.6 °F27 %30.14 in10.0 miSSW (210°)15.0 mphClear
12:55 PM62.6 °F26.6 °F26 %30.13 in10.0 miSSW (200°)17.3 mphClear
1:15 PM62.6 °F26.6 °F26 %30.12 in10.0 miSW (220°)12.7 mph18.4 mphClear
1:35 PM62.6 °F26.6 °F26 %30.11 in10.0 miSSW (210°)13.8 mphClear
1:55 PM62.6 °F26.6 °F26 %30.11 in10.0 miSW (220°)16.1 mph23.0 mphClear
2:15 PM62.6 °F28.4 °F27 %30.11 in10.0 miSSW (210°)11.5 mph23.0 mphClear
2:35 PM64.4 °F28.4 °F26 %30.10 in10.0 miSouth (190°)13.8 mphClear
2:55 PM64.4 °F26.6 °F24 %30.09 in10.0 miSW (220°)16.1 mphClear
3:15 PM64.4 °F26.6 °F24 %30.09 in10.0 miSSW (210°)19.6 mph24.2 mphClear
3:35 PM64.4 °F24.8 °F22 %30.09 in10.0 miSSW (210°)18.4 mph25.3 mphClear
3:55 PM64.4 °F26.6 °F24 %30.09 in10.0 miSW (230°)16.1 mph23.0 mphClear
4:15 PM64.4 °F24.8 °F22 %30.09 in10.0 miSW (230°)15.0 mph18.4 mphClear
4:35 PM64.4 °F26.6 °F24 %30.10 in10.0 miSW (230°)10.4 mphClear
4:55 PM62.6 °F26.6 °F26 %30.11 in10.0 miWSW (240°)9.2 mphClear
5:15 PM60.8 °F28.4 °F29 %30.12 in10.0 miWSW (250°)8.1 mphClear
5:35 PM59.0 °F28.4 °F31 %30.14 in10.0 miWest (260°)6.9 mphClear
5:55 PM55.4 °F28.4 °F36 %30.15 in10.0 miWest (270°)4.6 mphClear
6:15 PM55.4 °F28.4 °F36 %30.16 in10.0 miWNW (290°)6.9 mphClear
6:35 PM53.6 °F26.6 °F35 %30.18 in10.0 miNW (310°)4.6 mphClear
6:55 PM53.6 °F26.6 °F35 %30.20 in10.0 miNNW (340°)5.8 mphClear
7:15 PM51.8 °F30.2 °F44 %30.20 in10.0 miNorth (360°)8.1 mphClear
7:35 PM50.0 °F30.2 °F47 %30.23 in10.0 miNNE (20°)19.6 mph32.2 mphClear
7:55 PM46.4 °F32.0 °F57 %30.25 in10.0 miNNE (30°)17.3 mph21.9 mphClear
8:15 PM44.6 °F30.2 °F57 %30.27 in10.0 miNNE (30°)13.8 mph26.5 mphClear
8:35 PM42.8 °F28.4 °F57 %30.30 in10.0 miNNE (20°)20.7 mph27.6 mphClear
8:55 PM42.8 °F30.2 °F61 %30.31 in10.0 miNNE (20°)16.1 mph23.0 mphClear
9:15 PM41.0 °F30.2 °F65 %30.33 in10.0 miNE (40°)19.6 mph24.2 mphClear
9:35 PM39.2 °F28.4 °F65 %30.34 in10.0 miNNE (30°)17.3 mph24.2 mphClear
9:55 PM37.4 °F28.4 °F70 %30.35 in10.0 miNNE (30°)19.6 mph26.5 mphClear
10:15 PM35.6 °F26.6 °F70 %30.36 in10.0 miNE (40°)15.0 mph25.3 mphClear
10:35 PM35.6 °F26.6 °F70 %30.36 in10.0 miNNE (30°)11.5 mph18.4 mphClear
10:55 PM33.8 °F26.6 °F75 %30.37 in10.0 miNE (40°)10.4 mphClear
11:15 PM33.8 °F26.6 °F75 %30.36 in10.0 miNE (40°)13.8 mph18.4 mphClear
11:35 PM32.0 °F23.0 °F69 %30.36 in10.0 miNNE (30°)17.3 mph24.2 mphClear
11:55 PM32.0 °F19.4 °F60 %30.36 in10.0 miNNE (30°)13.8 mph21.9 mphClear
Hourly data recorded from KGYI, located miles away from Trenton, Texas







STORIES FROM OUR PARTNERS